* Astronomy

Members Login
Username 
 
Password 
    Remember Me  
Post Info TOPIC: Asteroid 2013 BK78


L

Posts: 131433
Date:
Asteroid 2013 BK78
Permalink  
 


Orbital elements:
2013 BK78
Epoch 2013 Jan. 8.0 TT = JDT 2456300.5                  MPC
M   0.77524              (2000.0)            P               Q
n   0.00300615     Peri.  286.70226     -0.22591743     -0.97414347
a  47.5476152      Node   176.35200     +0.90757216     -0.21137615
e   0.8273439      Incl.    2.17060     +0.35394079     -0.07977854
P 328              H   12.6           G   0.15
From 16 observations 2013 Jan. 17-Feb. 1.

MPEC 2013 - C20

Key to Orbital elements

Ed ~  8000 - 19000 metres wide 



__________________
Page 1 of 1  sorted by
Quick Reply

Please log in to post quick replies.



Create your own FREE Forum
Report Abuse
Powered by ActiveBoard